| time (UTC) | temp F | wind direction | speed knots | gust knots | rain 1hr in | rain 24hr in | rain mn in | humidity % | barometer mb |
| 20260505025204 | 69 | 85 | 0.0 | 0.0 | 0.00 | 0.00 | 0.00 | 61 | 1007.4 |
| 20260505023204 | 69 | 85 | 0.0 | 0.0 | 0.00 | 0.00 | 0.00 | 58 | 1007.4 |
| 20260505022204 | 70 | 85 | 0.0 | 0.0 | 0.00 | 0.00 | 0.00 | 59 | 1007.4 |
| 20260505015704 | 71 | 85 | 0.0 | 0.9 | 0.00 | 0.00 | 0.00 | 59 | 1007.4 |
| 20260505015204 | 72 | 85 | 0.0 | 1.7 | 0.00 | 0.00 | 0.00 | 59 | 1007.4 |
| 20260505014704 | 72 | 85 | 0.0 | 1.7 | 0.00 | 0.00 | 0.00 | 59 | 1007.4 |
| 20260505012704 | 73 | 34 | 0.0 | 0.9 | 0.00 | 0.00 | 0.00 | 57 | 1007.4 |
| 20260505012205 | 73 | 20 | 0.0 | 1.7 | 0.00 | 0.00 | 0.00 | 56 | 1007.4 |
| 20260505011704 | 74 | 20 | 0.0 | 1.7 | 0.00 | 0.00 | 0.00 | 53 | 1007.5 |
| 20260505011204 | 74 | 20 | 0.0 | 0.0 | 0.00 | 0.00 | 0.00 | 54 | 1007.5 |
| 20260505005704 | 74 | 20 | 0.0 | 1.7 | 0.00 | 0.00 | 0.00 | 53 | 1007.5 |
| 20260505003704 | 74 | 20 | 0.0 | 1.7 | 0.00 | 0.00 | 0.00 | 52 | 1007.5 |
| 20260505003204 | 74 | 20 | 0.0 | 1.7 | 0.00 | 0.00 | 0.00 | 52 | 1007.5 |
| 20260505002704 | 74 | 4 | 0.0 | 0.9 | 0.00 | 0.00 | 0.00 | 52 | 1007.5 |
| 20260505002204 | 74 | 4 | 0.0 | 1.7 | 0.00 | 0.00 | 0.00 | 52 | 1007.5 |
| 20260504235704 | 74 | 171 | 0.0 | 1.7 | 0.00 | 0.00 | 0.00 | 49 | 1007.5 |
| 20260504235204 | 74 | 158 | 0.0 | 1.7 | 0.00 | 0.00 | 0.00 | 49 | 1007.5 |
| 20260504234704 | 74 | 12 | 0.9 | 1.7 | 0.00 | 0.00 | 0.00 | 51 | 1007.5 |
| 20260504234204 | 75 | 162 | 0.0 | 1.7 | 0.00 | 0.00 | 0.00 | 50 | 1007.5 |
| 20260504233705 | 75 | 162 | 0.0 | 1.7 | 0.00 | 0.00 | 0.00 | 48 | 1007.5 |
| 20260504232703 | 76 | 212 | 0.0 | 1.7 | 0.00 | 0.00 | 0.00 | 49 | 1007.5 |
| 20260504231704 | 77 | 203 | 0.0 | 1.7 | 0.00 | 0.00 | 0.00 | 47 | 1007.5 |
| 20260504230704 | 77 | 180 | 0.0 | 1.7 | 0.00 | 0.00 | 0.00 | 48 | 1007.6 |
| 20260504230204 | 77 | 210 | 0.9 | 1.7 | 0.00 | 0.00 | 0.00 | 47 | 1007.6 |
| 20260504225704 | 76 | 158 | 0.0 | 1.7 | 0.00 | 0.00 | 0.00 | 47 | 1007.7 |
| 20260504225204 | 77 | 158 | 0.9 | 1.7 | 0.00 | 0.00 | 0.00 | 50 | 1007.7 |
| 20260504224204 | 76 | 225 | 0.0 | 1.7 | 0.00 | 0.00 | 0.00 | 49 | 1007.8 |
| 20260504223204 | 76 | 168 | 0.9 | 1.7 | 0.00 | 0.00 | 0.00 | 49 | 1007.9 |
| 20260504222203 | 76 | 181 | 0.9 | 1.7 | 0.00 | 0.00 | 0.00 | 51 | 1007.9 |
| 20260504221204 | 76 | 172 | 0.0 | 1.7 | 0.00 | 0.00 | 0.00 | 50 | 1008.1 |
| 20260504220204 | 76 | 185 | 0.0 | 1.7 | 0.00 | 0.00 | 0.00 | 52 | 1008.2 |
| 20260504215204 | 75 | 174 | 0.9 | 1.7 | 0.00 | 0.00 | 0.00 | 53 | 1008.3 |
| 20260504212204 | 75 | 190 | 0.0 | 1.7 | 0.00 | 0.00 | 0.00 | 53 | 1008.6 |
| 20260504205704 | 75 | 181 | 0.9 | 1.7 | 0.00 | 0.00 | 0.00 | 52 | 1008.6 |
| 20260504205204 | 75 | 209 | 0.0 | 1.7 | 0.00 | 0.00 | 0.00 | 53 | 1008.7 |
| 20260504204204 | 75 | 170 | 0.9 | 1.7 | 0.00 | 0.00 | 0.00 | 53 | 1008.7 |
| 20260504202704 | 75 | 176 | 0.0 | 1.7 | 0.00 | 0.00 | 0.00 | 52 | 1008.7 |
| 20260504200704 | 75 | 34 | 0.0 | 1.7 | 0.00 | 0.00 | 0.00 | 51 | 1008.8 |
| 20260504195204 | 74 | 241 | 0.0 | 1.7 | 0.00 | 0.00 | 0.00 | 49 | 1008.8 |
| 20260504194705 | 73 | 236 | 0.9 | 1.7 | 0.00 | 0.00 | 0.00 | 51 | 1008.7 |
| 20260504194204 | 73 | 285 | 0.9 | 1.7 | 0.00 | 0.00 | 0.00 | 50 | 1008.7 |
| 20260504193204 | 73 | 238 | 0.9 | 0.9 | 0.00 | 0.00 | 0.00 | 51 | 1008.8 |
| 20260504192704 | 72 | 219 | 0.0 | 1.7 | 0.00 | 0.00 | 0.00 | 54 | 1008.8 |
| 20260504192204 | 71 | 214 | 0.9 | 1.7 | 0.00 | 0.00 | 0.00 | 54 | 1008.9 |
| 20260504191204 | 70 | 227 | 0.9 | 1.7 | 0.00 | 0.00 | 0.00 | 55 | 1009.0 |
| 20260504190703 | 69 | 104 | 0.9 | 1.7 | 0.00 | 0.00 | 0.00 | 56 | 1009.1 |
| 20260504185203 | 69 | 92 | 0.0 | 2.6 | 0.00 | 0.00 | 0.00 | 54 | 1009.2 |
| 20260504184204 | 70 | 102 | 0.0 | 0.9 | 0.00 | 0.00 | 0.00 | 56 | 1009.2 |
| 20260504183704 | 70 | 110 | 0.0 | 1.7 | 0.00 | 0.00 | 0.00 | 54 | 1009.2 |
| 20260504183204 | 69 | 39 | 0.0 | 1.7 | 0.00 | 0.00 | 0.00 | 55 | 1009.2 |
| 20260504182204 | 69 | 126 | 0.0 | 0.9 | 0.00 | 0.00 | 0.00 | 55 | 1009.2 |
| 20260504180704 | 68 | 126 | 0.0 | 1.7 | 0.00 | 0.00 | 0.00 | 58 | 1009.0 |
| 20260504180204 | 67 | 126 | 0.0 | 0.9 | 0.00 | 0.00 | 0.00 | 61 | 1009.1 |
| 20260504175704 | 67 | 126 | 0.0 | 0.9 | 0.00 | 0.00 | 0.00 | 60 | 1009.2 |
| 20260504175204 | 67 | 126 | 0.9 | 1.7 | 0.00 | 0.00 | 0.00 | 61 | 1009.1 |
| 20260504174703 | 66 | 126 | 0.9 | 1.7 | 0.00 | 0.00 | 0.00 | 60 | 1009.1 |
| 20260504174204 | 66 | 126 | 0.9 | 1.7 | 0.00 | 0.00 | 0.00 | 61 | 1009.1 |
| 20260504173204 | 65 | 126 | 0.0 | 0.9 | 0.00 | 0.00 | 0.00 | 65 | 1009.2 |
| 20260504170704 | 65 | 67 | 0.0 | 1.7 | 0.00 | 0.00 | 0.00 | 63 | 1009.1 |
| 20260504170203 | 64 | 67 | 0.0 | 1.7 | 0.00 | 0.00 | 0.00 | 63 | 1009.1 |
| 20260504150703 | 57 | 66 | 0.0 | 0.0 | 0.00 | 0.00 | 0.00 | 77 | 1008.6 |
| 20260504150204 | 57 | 66 | 0.0 | 0.0 | 0.00 | 0.00 | 0.00 | 77 | 1008.5 |
| 20260504140704 | 56 | 66 | 0.0 | 0.0 | 0.00 | 0.00 | 0.00 | 72 | 1008.2 |
| 20260504120204 | 60 | 67 | 0.0 | 0.0 | 0.00 | 0.00 | 0.00 | 67 | 1007.5 |
| 20260504100204 | 61 | 67 | 0.0 | 0.0 | 0.00 | 0.00 | 0.00 | 60 | 1007.4 |
| 20260504081704 | 62 | 66 | 0.0 | 0.0 | 0.00 | 0.00 | 0.00 | 50 | 1007.3 |
| 20260504081203 | 62 | 66 | 0.0 | 0.0 | 0.00 | 0.00 | 0.00 | 51 | 1007.3 |
| 20260504080704 | 63 | 66 | 0.0 | 0.0 | 0.00 | 0.00 | 0.00 | 51 | 1007.3 |
| 20260504070204 | 66 | 100 | 0.0 | 1.7 | 0.00 | 0.00 | 0.00 | 46 | 1007.4 |
| 20260504060203 | 68 | 75 | 0.0 | 1.7 | 0.00 | 0.00 | 0.00 | 44 | 1007.3 |
| 20260504050703 | 68 | 98 | 0.0 | 0.9 | 0.00 | 0.00 | 0.00 | 45 | 1007.4 |
| 20260504045704 | 68 | 170 | 0.9 | 1.7 | 0.00 | 0.00 | 0.00 | 47 | 1007.4 |
| 20260504045204 | 68 | 48 | 0.0 | 1.7 | 0.00 | 0.00 | 0.00 | 45 | 1007.4 |
| 20260504044704 | 68 | 48 | 0.0 | 1.7 | 0.00 | 0.00 | 0.00 | 46 | 1007.4 |
| 20260504043704 | 68 | 6 | 0.0 | 1.7 | 0.00 | 0.00 | 0.00 | 46 | 1007.5 |
| 20260504042704 | 68 | 34 | 0.0 | 1.7 | 0.00 | 0.00 | 0.00 | 48 | 1007.4 |
| 20260504042204 | 68 | 34 | 0.0 | 1.7 | 0.00 | 0.00 | 0.00 | 45 | 1007.5 |
| 20260504041204 | 69 | 73 | 0.0 | 1.7 | 0.00 | 0.00 | 0.00 | 46 | 1007.4 |
| 20260504040703 | 69 | 94 | 0.9 | 1.7 | 0.00 | 0.00 | 0.00 | 44 | 1007.3 |
| 20260504035204 | 69 | 96 | 0.0 | 1.7 | 0.00 | 0.00 | 0.00 | 45 | 1007.2 |
| 20260504034204 | 69 | 58 | 0.0 | 0.9 | 0.00 | 0.00 | 0.00 | 47 | 1007.2 |
| 20260504032204 | 70 | 117 | 0.0 | 1.7 | 0.00 | 0.00 | 0.00 | 47 | 1007.2 |
| 20260504031704 | 71 | 129 | 0.0 | 1.7 | 0.00 | 0.00 | 0.00 | 47 | 1007.3 |
| 20260504031203 | 71 | 222 | 0.0 | 1.7 | 0.00 | 0.00 | 0.00 | 45 | 1007.3 |